When you browse on this site, cookies collect data to enhance your experience and personalize the content and advertising you see.
Visit our Privacy Policy to learn more. By continuing to use the site, you agree to this use of cookies and data.
  • En España
  • Lista de países
  • Para 7 días
  • Temperatura del agua
  • Mapa Satelital
  • El tiempo en el mapa
  • Informadores
  • user-avatar
    Iniciar sesión

    Tiempo cada hora Plovdiv

    Hoy, 20 Noviembre, Martes

    Tiempo Temperatura Precipitaciones Viento Presión Humedad
    00:00 +7°C° 0 mm 1 mps 739 mmHg 80%
    01:00 +7°C° 0 mm 1 mps 740 mmHg 81%
    02:00 +7°C° 0 mm 1 mps 740 mmHg 81%
    03:00 +7°C° 0 mm 1 mps 740 mmHg 81%
    04:00 +8°C° 0 mm 1 mps 740 mmHg 82%
    05:00 +8°C° 0 mm 1 mps 740 mmHg 83%
    06:00 +8°C° 0.1 mm 1 mps 740 mmHg 85%
    07:00 +8°C° 0.1 mm 1 mps 740 mmHg 87%
    08:00 +8°C° 0.1 mm 1 mps 740 mmHg 88%
    09:00 +8°C° 0.2 mm 2 mps 740 mmHg 88%
    10:00 +9°C° 0.2 mm 2 mps 740 mmHg 87%
    11:00 +10°C° 0.2 mm 2 mps 740 mmHg 86%
    12:00 +10°C° 0.2 mm 2 mps 740 mmHg 87%
    13:00 +12°C° 0.2 mm 2 mps 739 mmHg 88%
    14:00 +12°C° 0.2 mm 2 mps 739 mmHg 89%
    15:00 +10°C° 0.2 mm 2 mps 739 mmHg 91%
    16:00 +10°C° 0.2 mm 2 mps 738 mmHg 93%
    17:00 +10°C° 0.2 mm 2 mps 738 mmHg 95%
    18:00 +11°C° 0.4 mm 1 mps 738 mmHg 96%
    19:00 +11°C° 0.4 mm 1 mps 738 mmHg 96%
    20:00 +11°C° 0.4 mm 1 mps 737 mmHg 97%
    21:00 +11°C° 0.2 mm 1 mps 737 mmHg 97%
    22:00 +11°C° 0.2 mm 1 mps 737 mmHg 97%
    23:00 +11°C° 0.2 mm 1 mps 737 mmHg 97%

    Mañana, 21 Noviembre, Miércoles

    Tiempo Temperatura Precipitaciones Viento Presión Humedad
    00:00 +11°C° 0.1 mm 1 mps 737 mmHg 97%
    01:00 +11°C° 0.1 mm 1 mps 737 mmHg 97%
    02:00 +11°C° 0.1 mm 1 mps 736 mmHg 97%
    03:00 +12°C° 0.2 mm 1 mps 736 mmHg 96%
    04:00 +12°C° 0.2 mm 1 mps 735 mmHg 96%
    05:00 +12°C° 0.2 mm 1 mps 735 mmHg 96%
    06:00 +12°C° 0.3 mm 1 mps 735 mmHg 96%
    07:00 +12°C° 0.3 mm 1 mps 735 mmHg 95%
    08:00 +12°C° 0.3 mm 1 mps 735 mmHg 95%
    09:00 +12°C° 0.3 mm 1 mps 735 mmHg 94%
    10:00 +13°C° 0.3 mm 1 mps 735 mmHg 93%
    11:00 +13°C° 0.3 mm 1 mps 735 mmHg 92%
    12:00 +13°C° 1.4 mm 1 mps 735 mmHg 92%
    13:00 +13°C° 1.4 mm 1 mps 735 mmHg 92%
    14:00 +12°C° 1.4 mm 1 mps 735 mmHg 92%
    15:00 +12°C° 1.8 mm 2 mps 735 mmHg 93%
    16:00 +10°C° 1.8 mm 2 mps 736 mmHg 93%
    17:00 +10°C° 1.8 mm 2 mps 736 mmHg 93%
    18:00 +9°C° 1.3 mm 2 mps 736 mmHg 92%
    19:00 +9°C° 1.3 mm 2 mps 737 mmHg 91%
    20:00 +9°C° 1.3 mm 2 mps 737 mmHg 90%
    21:00 +8°C° 0.4 mm 2 mps 738 mmHg 89%
    22:00 +8°C° 0.4 mm 2 mps 738 mmHg 89%
    23:00 +8°C° 0.4 mm 2 mps 739 mmHg 88%

    Pasado mañana, 22 Noviembre, Jueves

    Tiempo Temperatura Precipitaciones Viento Presión Humedad
    00:00 +8°C° 0.2 mm 2 mps 739 mmHg 88%
    01:00 +8°C° 0.2 mm 2 mps 739 mmHg 87%
    02:00 +8°C° 0.2 mm 1 mps 740 mmHg 87%
    03:00 +8°C° 0.2 mm 1 mps 740 mmHg 87%
    04:00 +8°C° 0.2 mm 1 mps 740 mmHg 87%
    05:00 +8°C° 0.2 mm 1 mps 740 mmHg 87%
    06:00 +8°C° 0.2 mm 1 mps 741 mmHg 87%
    07:00 +8°C° 0.2 mm 1 mps 741 mmHg 86%
    08:00 +8°C° 0.2 mm 1 mps 742 mmHg 86%
    09:00 +9°C° 0.1 mm 1 mps 742 mmHg 83%
    10:00 +10°C° 0.1 mm 1 mps 742 mmHg 81%
    11:00 +10°C° 0.1 mm 1 mps 742 mmHg 78%
    12:00 +10°C° 0.1 mm 1 mps 742 mmHg 78%
    13:00 +11°C° 0.1 mm 1 mps 742 mmHg 78%
    14:00 +11°C° 0.1 mm 1 mps 742 mmHg 78%
    15:00 +10°C° 0.1 mm 1 mps 742 mmHg 81%
    16:00 +10°C° 0.1 mm 1 mps 742 mmHg 85%
    17:00 +9°C° 0.1 mm 1 mps 743 mmHg 88%
    18:00 +9°C° 0 mm 1 mps 743 mmHg 89%
    19:00 +8°C° 0 mm 1 mps 743 mmHg 90%
    20:00 +8°C° 0 mm 1 mps 743 mmHg 92%
    21:00 +8°C° 0 mm 1 mps 744 mmHg 92%
    22:00 +7°C° 0 mm 1 mps 744 mmHg 92%
    23:00 +6°C° 0 mm 0 mps 744 mmHg 93%

    23 Noviembre, Viernes

    Tiempo Temperatura Precipitaciones Viento Presión Humedad
    00:00 +6°C° 0 mm 0 mps 744 mmHg 93%
    01:00 +6°C° 0 mm 0 mps 744 mmHg 93%
    02:00 +5°C° 0 mm 0 mps 744 mmHg 93%
    03:00 +5°C° 0 mm 0 mps 745 mmHg 93%
    04:00 +5°C° 0 mm 0 mps 745 mmHg 92%
    05:00 +5°C° 0 mm 0 mps 745 mmHg 92%
    06:00 +5°C° 0 mm 0 mps 745 mmHg 91%
    07:00 +6°C° 0 mm 1 mps 745 mmHg 91%
    08:00 +6°C° 0 mm 1 mps 746 mmHg 90%
    09:00 +8°C° 0 mm 1 mps 746 mmHg 85%
    10:00 +9°C° 0 mm 1 mps 746 mmHg 80%
    11:00 +10°C° 0 mm 1 mps 747 mmHg 75%
    12:00 +11°C° 0 mm 1 mps 746 mmHg 74%
    13:00 +11°C° 0 mm 1 mps 746 mmHg 73%
    14:00 +11°C° 0 mm 1 mps 746 mmHg 72%
    15:00 +10°C° 0 mm 1 mps 746 mmHg 75%
    16:00 +9°C° 0 mm 1 mps 746 mmHg 79%
    17:00 +8°C° 0 mm 1 mps 746 mmHg 83%
    18:00 +8°C° 0 mm 1 mps 746 mmHg 84%
    19:00 +7°C° 0 mm 1 mps 747 mmHg 84%
    20:00 +7°C° 0 mm 1 mps 747 mmHg 85%
    21:00 +6°C° 0 mm 1 mps 747 mmHg 85%
    22:00 +6°C° 0 mm 1 mps 747 mmHg 84%
    23:00 +6°C° 0 mm 1 mps 747 mmHg 84%

    24 Noviembre, Sábado

    Tiempo Temperatura Precipitaciones Viento Presión Humedad
    00:00 +5°C° 0 mm 1 mps 747 mmHg 83%
    01:00 +5°C° 0 mm 1 mps 747 mmHg 83%
    02:00 +5°C° 0 mm 1 mps 747 mmHg 82%
    03:00 +5°C° 0 mm 1 mps 746 mmHg 82%
    04:00 +5°C° 0 mm 1 mps 746 mmHg 81%
    05:00 +5°C° 0 mm 1 mps 746 mmHg 81%
    06:00 +5°C° 0 mm 1 mps 746 mmHg 80%
    07:00 +5°C° 0 mm 1 mps 746 mmHg 79%
    08:00 +5°C° 0 mm 1 mps 746 mmHg 78%
    09:00 +7°C° 0 mm 1 mps 746 mmHg 72%
    10:00 +9°C° 0 mm 1 mps 746 mmHg 66%
    11:00 +11°C° 0 mm 1 mps 746 mmHg 60%
    12:00 +11°C° 0 mm 1 mps 745 mmHg 60%
    13:00 +12°C° 0 mm 1 mps 745 mmHg 59%
    14:00 +12°C° 0 mm 1 mps 744 mmHg 58%
    15:00 +11°C° 0 mm 1 mps 744 mmHg 64%
    16:00 +9°C° 0 mm 1 mps 744 mmHg 70%
    17:00 +8°C° 0 mm 1 mps 743 mmHg 76%
    18:00 +7°C° 0 mm 1 mps 743 mmHg 77%
    19:00 +7°C° 0 mm 1 mps 744 mmHg 78%
    20:00 +7°C° 0 mm 1 mps 744 mmHg 79%
    21:00 +7°C° 0 mm 1 mps 743 mmHg 79%
    22:00 +7°C° 0 mm 1 mps 743 mmHg 79%
    23:00 +7°C° 0 mm 1 mps 743 mmHg 79%

    25 Noviembre, Domingo

    Tiempo Temperatura Precipitaciones Viento Presión Humedad
    00:00 +6°C° 0 mm 1 mps 743 mmHg 79%
    01:00 +6°C° 0 mm 1 mps 743 mmHg 79%
    02:00 +6°C° 0 mm 1 mps 742 mmHg 79%
    03:00 +6°C° 0 mm 1 mps 742 mmHg 78%
    04:00 +6°C° 0 mm 1 mps 742 mmHg 77%
    05:00 +6°C° 0 mm 1 mps 742 mmHg 76%
    06:00 +6°C° 0 mm 1 mps 741 mmHg 75%
    07:00 +7°C° 0 mm 1 mps 741 mmHg 73%
    08:00 +7°C° 0 mm 1 mps 741 mmHg 72%
    09:00 +9°C° 0 mm 1 mps 741 mmHg 67%
    10:00 +11°C° 0 mm 1 mps 741 mmHg 62%
    11:00 +13°C° 0 mm 1 mps 741 mmHg 56%
    12:00 +14°C° 0 mm 1 mps 740 mmHg 56%
    13:00 +14°C° 0 mm 1 mps 740 mmHg 55%
    14:00 +15°C° 0 mm 1 mps 739 mmHg 55%
    15:00 +13°C° 0 mm 1 mps 739 mmHg 62%
    16:00 +12°C° 0 mm 1 mps 738 mmHg 68%
    17:00 +10°C° 0 mm 1 mps 738 mmHg 75%
    18:00 +10°C° 0 mm 1 mps 738 mmHg 76%
    19:00 +10°C° 0 mm 1 mps 738 mmHg 77%
    20:00 +9°C° 0 mm 1 mps 738 mmHg 78%
    21:00 +9°C° 0 mm 1 mps 738 mmHg 78%
    22:00 +9°C° 0 mm 1 mps 738 mmHg 79%
    23:00 +9°C° 0 mm 1 mps 738 mmHg 79%
    Mostrar más